STARLINK-35649, 66125

Orbit data source: Space-Track

STARLINK-35649, 66125 is a payload satellite owned by SpaceX/Seattle (US) in LEO that was launched on Wed, 22 Oct 2025 UTC via an FALCON 9 launch vehicle from the Air Force Western Test Range (AFWTR). Payload-class satellites include a variety of spacecraft equipped with specific instruments for various scientific and technological missions. These include communications satellites like Starlink; space stations such as the ISS; scientific satellites like the Hubble; Earth observation satellites from companies like Planet Labs, Umbra, and HawkEye 360; GPS; miniature CubeSats for education and research; and military/defense satellites.

Loading next visibility...
Identifier
66125, 2025-237M
Orbit
LEO
Country
Flag of USUS
Related business
Manufacturer
SpaceX/Seattle
Mission
Operational Commercial Communications
Bus & Motor
STARLINK V2MO, Unknown motor
Mass
575 kg wet, ~530 kg dry
Launch date (UTC)
2025-10-22 (8 months ago)
Launch vehicle
FALCON 9
Launch site
Air Force Western Test Range (AFWTR)
Object type
Payload
Rocket body
Debris
Shape & HBR
Box + 2 Pan, 17.7 m
Radar Cross Section
36.964 m², Large (>1 m²)

Expand to show TLE details & history
Last TLE update: 14 hours ago

TLE from 14 hours ago
0 STARLINK-35649
1 66125U 25237M   26171.40692191  .00118571  00000-0  34873-2 0  9998
2 66125  53.1578 282.0400 0001584  48.1632 311.9506 15.34200975 38348
Epoch: 2026-06-20T09:45Z
TLE epoch observation values (Epoch: 2026-06-20T09:45:58.053Z)
Latitude
0.00004°
Longitude
-133.07385°
Altitude
463.472 km
Speed
7.636 km/s
True Right ascension
18h 48m 09s
True Declination
0° 00' 00"
Sunlit
Object was in full shadow at epoch
Visualization orbit readout
Latitude
Unknown
Longitude
Unknown
Altitude
Unknown
Speed
Unknown
Apparent Right ascension
Unknown
Apparent Declination
Unknown
Sunlit
N/A
Visualization observer readout
Local Sidereal Time
10:20:29
Azimuth
Unknown
Elevation
Unknown
Doppler factor
Unknown
Orbital elements
Apogee altitude
464.636 km
Perigee altitude
462.468 km
Semi-major axis
6,841.689 km
Eccentricity
0.00016
Inclination
53.1578°
RAAN
282.04°
Arg. of periapsis
48.1632°
True anomaly
311.9371°
Mean anomaly
311.9506°
Eccentric anomaly
311.94385°
Mean motion
3.83529 °/min
Orbital period
93.87 mins
BSTAR
0.0034873
Loading maneuver chart data...
Computing Atmospheric mass density...
Loading historical data...
Loading historical data...
Loading historical data...
Loading historical data...
Loading historical data...
Loading historical data...
Loading historical data...

Documentation

Showing up to 5 results
|